TimeCEST,TemperatureF,Dew PointF,Humidity,Sea Level PressureIn,VisibilityMPH,Wind Direction,Wind SpeedMPH,Gust SpeedMPH,PrecipitationIn,Events,Conditions,WindDirDegrees,DateUTC
12:25 AM,64.4,50.0,59,29.80,6.2,South,13.8,-,N/A,,Unknown,170,2013-04-17 22:25:00
12:55 AM,64.4,50.0,59,29.80,6.2,South,15.0,-,N/A,,Unknown,170,2013-04-17 22:55:00
1:25 AM,64.4,50.0,59,29.80,6.2,South,13.8,-,N/A,,Unknown,180,2013-04-17 23:25:00
1:55 AM,62.6,50.0,63,29.77,6.2,South,10.4,-,N/A,,Unknown,190,2013-04-17 23:55:00
2:00 AM,63,50,53,29.80,11,South,11.2,,,,Partly Cloudy,190,2013-04-18 00:00:00
2:25 AM,64.4,50.0,59,29.80,6.2,SW,18.4,32.2,N/A,,Unknown,220,2013-04-18 00:25:00
2:55 AM,59.0,50.0,72,29.80,6.2,WSW,17.3,28.8,N/A,,Unknown,240,2013-04-18 00:55:00
3:25 AM,55.4,50.0,82,29.80,6.2,WSW,19.6,-,N/A,,Scattered Clouds,240,2013-04-18 01:25:00
3:55 AM,53.6,48.2,82,29.83,6.2,SW,17.3,-,N/A,,Partly Cloudy,230,2013-04-18 01:55:00
4:25 AM,53.6,46.4,77,29.83,6.2,WSW,18.4,-,N/A,,Overcast,240,2013-04-18 02:25:00
4:55 AM,51.8,46.4,82,29.83,6.2,WSW,17.3,-,N/A,,Scattered Clouds,240,2013-04-18 02:55:00
5:00 AM,52,45,71,29.86,7,SW,15.7,,,,Partly Cloudy,230,2013-04-18 03:00:00
5:25 AM,50.0,44.6,82,29.83,6.2,SW,18.4,-,N/A,,Unknown,230,2013-04-18 03:25:00
5:55 AM,50.0,44.6,82,29.86,6.2,SW,18.4,-,N/A,,Unknown,230,2013-04-18 03:55:00
6:25 AM,48.2,42.8,82,29.86,5.6,SW,18.4,29.9,N/A,,Unknown,230,2013-04-18 04:25:00
6:55 AM,48.2,42.8,82,29.86,5.0,SW,20.7,-,N/A,,Unknown,230,2013-04-18 04:55:00
7:25 AM,48.2,42.8,82,29.89,5.6,SW,24.2,-,N/A,,Unknown,230,2013-04-18 05:25:00
7:55 AM,48.2,42.8,82,29.89,5.6,SW,21.9,-,N/A,,Unknown,230,2013-04-18 05:55:00
8:00 AM,49,42,71,29.91,6,SW,22.4,,,,Light Haze,230,2013-04-18 06:00:00
8:25 AM,50.0,42.8,76,29.92,6.2,SW,25.3,-,N/A,,Unknown,230,2013-04-18 06:25:00
8:55 AM,50.0,42.8,76,29.92,6.2,SW,23.0,35.7,N/A,,Partly Cloudy,230,2013-04-18 06:55:00
9:25 AM,51.8,42.8,71,29.92,6.2,SW,28.8,-,N/A,,Partly Cloudy,230,2013-04-18 07:25:00
9:55 AM,51.8,42.8,71,29.92,6.2,WSW,26.5,39.1,N/A,,Scattered Clouds,240,2013-04-18 07:55:00
10:25 AM,53.6,42.8,67,29.92,6.2,SW,34.5,49.5,N/A,,Unknown,230,2013-04-18 08:25:00
10:55 AM,53.6,41.0,62,29.95,6.2,SW,31.1,46.0,N/A,,Unknown,230,2013-04-18 08:55:00
11:00 AM,54,41,50,29.96,9,SW,31.3,,,,,230,2013-04-18 09:00:00
11:25 AM,53.6,41.0,62,29.95,6.2,SW,29.9,42.6,N/A,,Partly Cloudy,230,2013-04-18 09:25:00
11:55 AM,55.4,41.0,58,29.95,6.2,SW,33.4,52.9,N/A,,Partly Cloudy,230,2013-04-18 09:55:00
12:25 PM,55.4,39.2,54,29.95,6.2,SW,34.5,49.5,N/A,,Partly Cloudy,230,2013-04-18 10:25:00
12:55 PM,55.4,39.2,54,29.98,6.2,SW,32.2,50.6,N/A,,Partly Cloudy,230,2013-04-18 10:55:00
1:25 PM,55.4,37.4,51,29.98,6.2,SW,35.7,51.8,N/A,,Unknown,230,2013-04-18 11:25:00
1:55 PM,55.4,41.0,58,29.98,6.2,SW,32.2,47.2,N/A,,Mostly Cloudy,230,2013-04-18 11:55:00
2:00 PM,56,40,44,29.99,11,SW,33.6,,,,Partly Cloudy,230,2013-04-18 12:00:00
2:25 PM,57.2,41.0,55,29.98,6.2,SW,33.4,44.9,N/A,,Partly Cloudy,230,2013-04-18 12:25:00
2:55 PM,55.4,39.2,54,29.98,6.2,WSW,33.4,49.5,N/A,,Partly Cloudy,240,2013-04-18 12:55:00
3:25 PM,57.2,39.2,51,30.01,6.2,WSW,31.1,46.0,N/A,,Unknown,240,2013-04-18 13:25:00
3:55 PM,55.4,41.0,58,30.01,6.2,WSW,31.1,44.9,N/A,,Unknown,240,2013-04-18 13:55:00
4:25 PM,55.4,42.8,63,30.01,6.2,WSW,28.8,40.3,N/A,,Scattered Clouds,240,2013-04-18 14:25:00
4:55 PM,55.4,39.2,54,30.01,6.2,WSW,28.8,43.7,N/A,,Unknown,240,2013-04-18 14:55:00
5:00 PM,56,40,44,30.02,12,WSW,29.1,,,,,240,2013-04-18 15:00:00
5:25 PM,53.6,41.0,62,30.01,6.2,WSW,28.8,40.3,N/A,,Unknown,250,2013-04-18 15:25:00
5:55 PM,55.4,42.8,63,30.01,6.2,WSW,26.5,43.7,N/A,,Partly Cloudy,240,2013-04-18 15:55:00
6:25 PM,53.6,39.2,58,30.01,6.2,WSW,28.8,42.6,N/A,,Unknown,240,2013-04-18 16:25:00
6:55 PM,53.6,41.0,62,30.01,6.2,WSW,26.5,39.1,N/A,,Unknown,240,2013-04-18 16:55:00
7:25 PM,53.6,41.0,62,30.01,6.2,WSW,25.3,-,N/A,,Unknown,240,2013-04-18 17:25:00
7:55 PM,51.8,41.0,67,30.01,6.2,WSW,25.3,39.1,N/A,,Unknown,240,2013-04-18 17:55:00
8:00 PM,52,41,56,30.03,11,SW,26.8,,,,Partly Cloudy,230,2013-04-18 18:00:00
8:25 PM,51.8,41.0,67,30.04,6.2,WSW,25.3,36.8,N/A,,Unknown,240,2013-04-18 18:25:00
8:55 PM,51.8,41.0,67,30.04,6.2,WSW,23.0,-,N/A,,Unknown,240,2013-04-18 18:55:00
9:25 PM,51.8,41.0,67,30.04,6.2,WSW,19.6,-,N/A,,Partly Cloudy,240,2013-04-18 19:25:00
9:55 PM,50.0,41.0,71,30.04,6.2,SW,21.9,35.7,N/A,,Unknown,230,2013-04-18 19:55:00
10:25 PM,50.0,42.8,76,30.04,6.2,SW,21.9,-,N/A,,Unknown,230,2013-04-18 20:25:00
10:55 PM,48.2,42.8,82,30.04,6.2,SW,19.6,32.2,N/A,,Unknown,230,2013-04-18 20:55:00
11:00 PM,49,43,71,30.04,8,SW,20.1,,,,,230,2013-04-18 21:00:00
11:25 PM,48.2,42.8,82,30.04,6.2,SW,18.4,31.1,N/A,,Unknown,230,2013-04-18 21:25:00
11:55 PM,48.2,42.8,82,30.04,6.2,SW,18.4,-,N/A,,Unknown,230,2013-04-18 21:55:00